Location: Banff
(51.1670°N, 115.5670°W)
Time: 01:15:09
(UTC-06:00)

Amateur Radio Satellites - All Passes

Search period start: 18 April 2015 00:45
Search period end: 19 April 2015 00:45
Location: Banff, 51.1670°N, 115.5670°W

Satellite Date Start Highest point End Downlink Frequencies (MHz)
Time Altitude Azimuth
QB50P1 18 Apr 00:47:46 00:52:01 59° 101° (ESE) 00:56:16 145.935-145.965
PHONESAT 2.4 18 Apr 00:50:09 00:52:17 15° 181° (S) 00:54:25 2401.200-2431.200
ESTCUBE 1 18 Apr 00:50:28 00:54:33 32° 265° (W) 00:58:38 437.505/2401.250
Cosmos 2491 18 Apr 00:58:37 01:07:20 83° 98° (E) 01:16:09 435.465 / 435.565
CUBEBUG 1 18 Apr 00:59:27 01:03:15 28° 266° (W) 01:07:01 437.445
BEESAT 18 Apr 01:05:34 01:09:14 23° 60° (ENE) 01:13:00 436.000
SWISSCUBE 18 Apr 01:06:22 01:10:11 25° 61° (ENE) 01:14:05 437.505
YUBILEINY 18 Apr 01:07:40 01:15:47 43° 274° (W) 01:23:43 435.215
BUGSAT 1 18 Apr 01:10:35 01:14:40 71° 103° (ESE) 01:18:47 437.445
QB50P2 18 Apr 01:10:38 01:14:56 83° 286° (WNW) 01:19:14 145.880/145.840
SPROUT 18 Apr 01:17:32 01:21:45 59° 259° (WSW) 01:26:01 437.525
TISAT 1 18 Apr 01:20:26 01:24:36 65° 258° (WSW) 01:28:48 437.305
TIGRISAT 18 Apr 01:24:11 01:28:36 39° 293° (WNW) 01:32:59 435.000
UNISAT 6 18 Apr 01:24:26 01:28:49 38° 293° (WNW) 01:33:11 437.425
POPSAT HIP 1 18 Apr 01:34:17 01:38:27 51° 290° (WNW) 01:42:36 437.405
Cosmos 2504 18 Apr 01:34:37 01:42:42 46° 67° (ENE) 01:50:16 435.465 / 435.565
NANOSAT C BR1 18 Apr 01:35:09 01:39:18 50° 290° (WNW) 01:43:26 145.865
KKS-1 18 Apr 01:47:16 01:49:02 12° 54° (NE) 01:50:57 437.445
O/OREOS (USA 219) 18 Apr 01:56:21 02:00:56 66° 301° (WNW) 02:05:30 437.305
POLYITAN 1 18 Apr 02:00:11 02:03:58 30° 295° (WNW) 02:07:43 437.675
ITUPSAT 1 18 Apr 02:05:24 02:10:09 66° 72° (ENE) 02:14:57 437.325
ANTELSAT 18 Apr 02:06:52 02:10:14 19° 301° (WNW) 02:13:29 437.575/2403.000
RS-15 18 Apr 02:12:13 02:23:27 63° 239° (WSW) 02:35:05 29.354- 29.394
DUCHIFAT 1 18 Apr 02:12:21 02:15:51 25° 297° (WNW) 02:19:18 145.980
QB50P1 18 Apr 02:24:25 02:27:33 20° 299° (WNW) 02:30:36 145.935-145.965
PHONESAT 2.4 18 Apr 02:29:16 02:29:42 10° 198° (SSW) 02:30:03 2401.200-2431.200
AIST 1 18 Apr 02:35:45 02:39:56 50° 95° (E) 02:44:09
BEESAT 18 Apr 02:41:59 02:46:44 61° 259° (WSW) 02:51:31 436.000
SWISSCUBE 18 Apr 02:43:03 02:47:46 55° 259° (W) 02:52:31 437.505
BUGSAT 1 18 Apr 02:47:10 02:49:43 16° 301° (WNW) 02:52:11 437.445
QB50P2 18 Apr 02:48:10 02:50:13 13° 304° (NW) 02:52:08 145.880/145.840
Gurwin Techsat 1B 18 Apr 02:55:44 02:58:32 15° 84° (E) 03:01:34 435.225
Cosmos 2491 18 Apr 02:57:56 03:05:25 29° 303° (WNW) 03:12:46 435.465 / 435.565
Oscar 19 18 Apr 02:59:59 03:05:01 48° 98° (E) 03:10:03 437.125/150
STARS 18 Apr 03:00:19 03:04:13 33° 65° (ENE) 03:08:12 437.465
ITAMSAT 1 18 Apr 03:15:52 03:19:57 24° 91° (E) 03:24:07 435.822/435.867
KKS-1 18 Apr 03:20:32 03:24:57 73° 73° (ENE) 03:29:25 437.445
Cosmos 2504 18 Apr 03:28:14 03:36:18 50° 271° (W) 03:43:44 435.465 / 435.565
GONETS M04 18 Apr 03:31:36 03:38:22 24° 52° (NE) 03:45:22
O/OREOS (USA 219) 18 Apr 03:38:38 03:41:18 15° 324° (NW) 03:43:53 437.305
ITUPSAT 1 18 Apr 03:45:03 03:48:34 19° 271° (W) 03:51:57 437.325
DANDE 18 Apr 03:56:20 03:58:20 12° 51° (NE) 04:00:49 436.750
JAS-2 18 Apr 03:58:52 04:00:44 11° 73° (ENE) 04:02:57 435.910
CUSAT 1 18 Apr 04:11:40 04:15:57 19° 57° (ENE) 04:21:05 437.405
AIST 1 18 Apr 04:14:35 04:17:56 21° 295° (WNW) 04:21:11
M-CUBED/EXP-1 PRIME 18 Apr 04:20:19 04:22:06 12° 44° (NE) 04:24:04 437.505
MOZHAYETS 4 18 Apr 04:22:23 04:26:16 27° 63° (ENE) 04:30:12
RS-15 18 Apr 04:26:37 04:33:48 18° 262° (W) 04:40:26 29.354- 29.394
Cosmos 2499 18 Apr 04:30:46 04:32:49 11° 34° (NE) 04:35:13 435.465 / 435.565
Gurwin Techsat 1B 18 Apr 04:34:05 04:39:26 85° 104° (ESE) 04:44:47 435.225
STARS 18 Apr 04:36:42 04:40:41 33° 264° (W) 04:44:41 437.465
Oscar 19 18 Apr 04:39:39 04:44:14 31° 298° (WNW) 04:48:44 437.125/150
ITAMSAT 1 18 Apr 04:54:47 04:59:54 60° 291° (WNW) 05:04:59 435.822/435.867
KKS-1 18 Apr 04:59:27 05:02:12 15° 273° (W) 05:04:47 437.445
AUBIESAT-1 18 Apr 05:08:19 05:12:01 23° 54° (NE) 05:15:50 437.475
AO-7 18 Apr 05:25:18 05:33:09 44° 98° (E) 05:41:03 29.400- 29.500
Cosmos 2504 18 Apr 05:25:30 05:27:38 11° 294° (WNW) 05:29:11 435.465 / 435.565
HORYU 2 18 Apr 05:25:41 05:30:12 65° 103° (ESE) 05:34:41 437.375
GONETS M04 18 Apr 05:28:00 05:36:55 81° 77° (ENE) 05:45:49
STRAND 1 18 Apr 05:33:34 05:34:53 11° 49° (NE) 05:36:25 437.568
BEESAT 2 18 Apr 05:34:30 05:37:24 19° 115° (ESE) 05:40:25 435.950
CUBESAT XI-V 18 Apr 05:36:15 05:38:56 16° 57° (ENE) 05:41:44 437.345
DANDE 18 Apr 05:37:04 05:42:51 49° 71° (ENE) 05:50:15 436.750
JAS-2 18 Apr 05:40:52 05:47:50 57° 98° (E) 05:53:59 435.910
BEESAT 3 18 Apr 05:43:30 05:46:54 26° 119° (ESE) 05:50:24 437.485
M-CUBED/EXP-1 PRIME 18 Apr 05:51:25 05:56:01 52° 63° (ENE) 06:00:46 437.505
CUSAT 1 18 Apr 05:53:17 05:59:35 74° 75° (ENE) 06:07:27 437.405
MOZHAYETS 4 18 Apr 05:58:49 06:03:18 46° 262° (W) 06:07:49
Gurwin Techsat 1B 18 Apr 06:15:03 06:18:51 20° 304° (NW) 06:22:31 435.225
Cosmos 2499 18 Apr 06:21:40 06:29:15 38° 63° (ENE) 06:36:22 435.465 / 435.565
PRISM 18 Apr 06:33:45 06:37:25 31° 65° (ENE) 06:41:08 437.425
ITAMSAT 1 18 Apr 06:36:13 06:38:29 13° 310° (NW) 06:40:35 435.822/435.867
AUBIESAT-1 18 Apr 06:41:41 06:46:24 69° 252° (WSW) 06:51:15 437.475
CUTE-I 18 Apr 06:42:42 06:45:20 14° 84° (E) 06:48:13 437.470
Cubesat XI-IV 18 Apr 06:49:19 06:52:29 16° 86° (E) 06:55:52 437.490
HORYU 2 18 Apr 07:03:08 07:06:27 20° 301° (WNW) 07:09:40 437.375
STRAND 1 18 Apr 07:08:08 07:13:05 52° 68° (ENE) 07:18:04 437.568
BEESAT 2 18 Apr 07:11:00 07:15:08 69° 314° (NW) 07:19:19 435.950
CUBESAT XI-V 18 Apr 07:11:07 07:15:48 90° 259° (W) 07:20:28 437.345
AO-7 18 Apr 07:18:11 07:26:15 56° 300° (WNW) 07:34:16 29.400- 29.500
AIST 2 18 Apr 07:19:25 07:23:38 60° 126° (SE) 07:27:53 435.215
DANDE 18 Apr 07:20:25 07:26:09 41° 266° (W) 07:33:12 436.750
BEESAT 3 18 Apr 07:20:42 07:24:44 51° 318° (NW) 07:28:48 437.485
GONETS M04 18 Apr 07:25:45 07:32:57 28° 280° (W) 07:39:55
JAS-2 18 Apr 07:26:13 07:32:38 36° 302° (WNW) 07:38:19 435.910
M-CUBED/EXP-1 PRIME 18 Apr 07:27:04 07:31:08 27° 263° (W) 07:35:12 437.505
CUSAT 1 18 Apr 07:36:40 07:42:07 28° 270° (W) 07:48:18 437.405
PRISM 18 Apr 08:09:03 08:12:52 33° 264° (W) 08:16:40 437.425
Cosmos 2499 18 Apr 08:14:51 08:22:55 59° 268° (W) 08:30:19 435.465 / 435.565
AUBIESAT-1 18 Apr 08:20:46 08:22:09 11° 272° (W) 08:23:18 437.475
CUTE-I 18 Apr 08:21:01 08:26:22 82° 103° (ESE) 08:31:43 437.470
Cubesat XI-IV 18 Apr 08:28:04 08:33:26 88° 287° (WNW) 08:38:46 437.490
O/OREOS (USA 219) 18 Apr 08:43:26 08:46:29 18° 40° (NE) 08:49:35 437.305
STRAND 1 18 Apr 08:48:17 08:52:37 27° 268° (W) 08:56:53 437.568
BEESAT 2 18 Apr 08:50:53 08:53:59 20° 336° (NNW) 08:57:04 435.950
CUBESAT XI-V 18 Apr 08:51:43 08:54:01 13° 276° (W) 08:56:06 437.345
AIST 2 18 Apr 08:58:43 09:02:32 29° 327° (NNW) 09:06:20 435.215
BEESAT 3 18 Apr 09:00:53 09:03:40 17° 340° (NNW) 09:06:24 437.485
Cosmos 2491 18 Apr 09:06:36 09:11:42 17° 43° (NE) 09:17:09 435.465 / 435.565
CUTE 1.7 + AOD 2 18 Apr 09:09:26 09:10:04 10° 83° (E) 09:10:58 437.475
AO-7 18 Apr 09:11:55 09:17:28 20° 323° (NW) 09:22:50 29.400- 29.500
JAS-2 18 Apr 09:13:46 09:15:40 11° 325° (NW) 09:17:15 435.910
AAUSAT CUBESAT 2 18 Apr 09:41:07 09:43:04 13° 86° (E) 09:45:12 437.432
BRITE-PL 18 Apr 09:45:11 09:49:43 46° 98° (E) 09:54:37 437.365/2234.400
DOVE 4 18 Apr 09:54:41 09:58:54 29° 93° (E) 10:03:21 437.250
ANTELSAT 18 Apr 09:58:14 10:01:21 19° 59° (ENE) 10:04:38 437.575/2403.000
DUCHIFAT 1 18 Apr 10:01:58 10:02:30 10° 54° (NE) 10:03:12 145.980
CUTE-I 18 Apr 10:02:03 10:05:55 20° 304° (NW) 10:09:40 437.470
CINEMA 3 18 Apr 10:03:50 10:07:23 20° 89° (E) 10:11:07 145.822/145.860
UWE-3 18 Apr 10:09:04 10:09:20 10° 82° (E) 10:09:52 435.000/436.395/437.385
Cubesat XI-IV 18 Apr 10:09:17 10:12:54 18° 306° (NW) 10:16:22 437.490
Cosmos 2499 18 Apr 10:10:40 10:14:16 13° 291° (WNW) 10:17:20 435.465 / 435.565
QB50P1 18 Apr 10:12:26 10:14:22 13° 56° (ENE) 10:16:26 145.935-145.965
HO-68 18 Apr 10:15:20 10:22:18 50° 99° (E) 10:29:15 435.675
GOMX 1 18 Apr 10:15:22 10:20:06 59° 100° (E) 10:25:10 467.674
O/OREOS (USA 219) 18 Apr 10:22:05 10:26:39 86° 62° (ENE) 10:31:09 437.305
COMPASS 1 18 Apr 10:25:31 10:29:31 39° 97° (E) 10:33:30 437.405
YUBILEINY 18 Apr 10:28:40 10:31:14 12° 67° (ENE) 10:34:24 435.215
BEESAT 2 18 Apr 10:31:45 10:33:36 13° 360° (N) 10:35:28 435.950
CANX-2 18 Apr 10:32:03 10:36:23 70° 102° (ESE) 10:40:39 2200.000
BUGSAT 1 18 Apr 10:32:40 10:34:41 14° 58° (ENE) 10:36:49 437.445
QB50P2 18 Apr 10:34:07 10:37:10 20° 61° (ENE) 10:40:20 145.880/145.840
SEEDS 18 Apr 10:37:46 10:42:02 62° 101° (ESE) 10:46:16 437.485
FUNcube-1 18 Apr 10:38:59 10:41:43 16° 87° (E) 10:44:37 145.935
AIST 2 18 Apr 10:40:03 10:42:25 14° 350° (N) 10:44:44 435.215
BEESAT 3 18 Apr 10:41:25 10:43:14 12° 4° (N) 10:45:05 437.485
CUTE 1.7 + AOD 2 18 Apr 10:42:29 10:46:50 81° 101° (ESE) 10:51:09 437.475
TIGRISAT 18 Apr 10:51:14 10:55:32 49° 69° (ENE) 10:59:59 435.000
UNISAT 6 18 Apr 10:51:38 10:55:57 50° 69° (ENE) 11:00:27 437.425
POPSAT HIP 1 18 Apr 10:56:47 11:00:27 30° 65° (ENE) 11:04:11 437.405
NANOSAT C BR1 18 Apr 10:57:25 11:01:05 30° 65° (ENE) 11:04:50 145.865
CUBEBUG 2 18 Apr 10:58:33 11:02:50 34° 95° (E) 11:07:12 437.445
UKube-1 18 Apr 10:58:41 11:00:51 14° 87° (E) 11:03:10 .
ZACube-1 18 Apr 11:00:14 11:03:59 25° 91° (E) 11:07:48 437.345
Cosmos 2491 18 Apr 11:02:30 11:11:09 56° 71° (ENE) 11:19:49 435.465 / 435.565
AAUSAT CUBESAT 2 18 Apr 11:15:05 11:19:20 79° 286° (WNW) 11:23:32 437.432
PCSat 18 Apr 11:18:50 11:24:02 50° 119° (ESE) 11:29:17 145.827
Oscar 11 18 Apr 11:19:02 11:23:22 58° 101° (E) 11:27:39 145.826/435.025
POLYITAN 1 18 Apr 11:22:05 11:26:10 52° 70° (ENE) 11:30:20 437.675
BRITE-PL 18 Apr 11:24:09 11:28:08 28° 295° (WNW) 11:32:19 437.365/2234.400
50 SAT 18 Apr 11:31:17 11:33:42 15° 88° (E) 11:36:14 437.505
DOVE 4 18 Apr 11:32:14 11:36:50 45° 291° (WNW) 11:41:38 437.250
ANTELSAT 18 Apr 11:33:12 11:37:41 70° 258° (WSW) 11:42:18 437.575/2403.000
DUCHIFAT 1 18 Apr 11:33:25 11:37:33 64° 72° (ENE) 11:41:45 145.980
DX 1 18 Apr 11:38:36 11:42:34 33° 96° (E) 11:46:32 434.975-435.025
CINEMA 3 18 Apr 11:40:14 11:45:00 64° 288° (WNW) 11:49:55 145.822/145.860
UWE-3 18 Apr 11:42:09 11:46:49 70° 102° (ESE) 11:51:31 435.000/436.395/437.385
DELFI C3 18 Apr 11:43:55 11:48:01 80° 101° (ESE) 11:52:04 145.870
QB50P1 18 Apr 11:45:25 11:49:38 86° 75° (ENE) 11:53:54 145.935-145.965
GOMX 1 18 Apr 11:54:10 11:57:59 24° 298° (WNW) 12:01:53 467.674
COMPASS 1 18 Apr 12:01:28 12:05:06 27° 295° (WNW) 12:08:38 437.405
HUMSAT D 18 Apr 12:02:09 12:06:22 47° 98° (E) 12:10:35 437.325/437.525
O/OREOS (USA 219) 18 Apr 12:03:08 12:05:27 14° 261° (W) 12:07:36 437.305
HO-68 18 Apr 12:03:16 12:10:02 44° 300° (WNW) 12:16:42 435.675
BUGSAT 1 18 Apr 12:05:37 12:09:39 83° 255° (WSW) 12:13:43 437.445
QB50P2 18 Apr 12:08:35 12:12:45 56° 259° (W) 12:16:56 145.880/145.840
CANX-2 18 Apr 12:08:58 12:11:52 17° 301° (WNW) 12:14:39 2200.000
BEESAT 2 18 Apr 12:10:13 12:13:14 19° 23° (NNE) 12:16:16 435.950
VELOX 1 18 Apr 12:12:51 12:16:56 36° 96° (E) 12:21:03 145.980
FUNcube-1 18 Apr 12:14:03 12:18:38 76° 285° (WNW) 12:23:14 145.935
SEEDS 18 Apr 12:14:24 12:17:28 19° 299° (WNW) 12:20:25 437.485
YUBILEINY 18 Apr 12:17:41 12:26:04 52° 90° (E) 12:34:33 435.215
BEESAT 3 18 Apr 12:19:26 12:22:41 22° 27° (NNE) 12:25:57 437.485
CUTE 1.7 + AOD 2 18 Apr 12:19:37 12:22:15 16° 302° (WNW) 12:24:43 437.475
AIST 2 18 Apr 12:20:01 12:22:37 15° 14° (NNE) 12:25:14 435.215
AISAT 18 Apr 12:27:13 12:31:33 50° 100° (E) 12:35:53 437.250
TIGRISAT 18 Apr 12:28:56 12:32:35 23° 269° (W) 12:36:13 435.000
UNISAT 6 18 Apr 12:29:28 12:33:04 23° 270° (W) 12:36:40 437.425
POPSAT HIP 1 18 Apr 12:32:26 12:36:18 34° 264° (W) 12:40:10 437.405
NANOSAT C BR1 18 Apr 12:33:04 12:36:55 33° 264° (W) 12:40:46 145.865
UKube-1 18 Apr 12:33:16 12:37:37 79° 287° (WNW) 12:41:57 .
CUBEBUG 2 18 Apr 12:35:14 12:39:33 36° 293° (WNW) 12:43:53 437.445
ZACube-1 18 Apr 12:36:10 12:40:36 48° 290° (WNW) 12:45:01 437.345
ESTCUBE 1 18 Apr 12:37:31 12:41:41 36° 96° (E) 12:45:51 437.505/2401.250
AIST 1 18 Apr 12:37:53 12:41:16 23° 66° (ENE) 12:44:42
CUBEBUG 1 18 Apr 12:42:30 12:46:30 36° 96° (E) 12:50:32 437.445
Oscar 19 18 Apr 12:44:32 12:48:19 21° 57° (ENE) 12:52:13 437.125/150
AAUSAT CUBESAT 2 18 Apr 12:52:32 12:54:18 12° 304° (NW) 12:55:55 437.432
AO-7 18 Apr 12:53:24 12:55:58 12° 20° (NNE) 12:58:45 29.400- 29.500
Oscar 11 18 Apr 12:55:56 12:59:13 21° 299° (WNW) 13:02:24 145.826/435.025
POLYITAN 1 18 Apr 12:59:17 13:02:26 20° 270° (W) 13:05:31 437.675
Cosmos 2491 18 Apr 12:59:45 13:07:54 43° 273° (W) 13:15:56 435.465 / 435.565
SPROUT 18 Apr 12:59:53 13:02:44 17° 89° (E) 13:05:43 437.525
TISAT 1 18 Apr 13:01:09 13:03:24 14° 87° (E) 13:05:48 437.305
PCSat 18 Apr 13:02:31 13:07:38 40° 320° (NW) 13:12:45 145.827
ITAMSAT 1 18 Apr 13:03:08 13:05:10 13° 50° (NE) 13:07:25 435.822/435.867
50 SAT 18 Apr 13:04:57 13:09:00 63° 288° (WNW) 13:13:01 437.505
DUCHIFAT 1 18 Apr 13:11:12 13:13:53 16° 272° (W) 13:16:26 145.980
DX 1 18 Apr 13:14:54 13:18:49 32° 295° (WNW) 13:22:40 434.975-435.025
CINEMA 3 18 Apr 13:19:25 13:21:27 12° 306° (NW) 13:23:19 145.822/145.860
UWE-3 18 Apr 13:19:33 13:22:55 20° 300° (WNW) 13:26:13 435.000/436.395/437.385
DELFI C3 18 Apr 13:20:23 13:22:39 14° 302° (WNW) 13:24:47 145.870
QB50P1 18 Apr 13:24:26 13:26:13 12° 275° (W) 13:27:49 145.935-145.965
HUMSAT D 18 Apr 13:38:23 13:41:54 24° 297° (WNW) 13:45:24 437.325/437.525
BEESAT 2 18 Apr 13:47:58 13:52:07 65° 45° (NE) 13:56:12 435.950
VELOX 1 18 Apr 13:49:32 13:53:29 31° 295° (WNW) 13:57:22 145.980
FUNcube-1 18 Apr 13:52:03 13:54:17 13° 305° (NW) 13:56:21 145.935
HO-68 18 Apr 13:52:37 13:56:07 14° 323° (NW) 13:59:23 435.675
BEESAT 3 18 Apr 13:57:08 14:01:17 87° 48° (NE) 14:05:22 437.485
AIST 2 18 Apr 13:58:19 14:02:20 38° 37° (NE) 14:06:19 435.215
ITUPSAT 1 18 Apr 14:03:01 14:04:33 12° 83° (E) 14:06:19 437.325
AISAT 18 Apr 14:04:19 14:07:54 24° 298° (WNW) 14:11:24 437.250
UKube-1 18 Apr 14:11:06 14:13:07 13° 305° (NW) 14:15:00 .
SO-50 18 Apr 14:13:33 14:17:12 23° 116° (ESE) 14:21:02 436.795
ESTCUBE 1 18 Apr 14:14:31 14:18:32 31° 295° (WNW) 14:22:28 437.505/2401.250
YUBILEINY 18 Apr 14:14:41 14:23:09 46° 293° (WNW) 14:31:34 435.215
AIST 1 18 Apr 14:15:06 14:19:10 43° 266° (W) 14:23:12
JAS-2 18 Apr 14:15:58 14:20:14 16° 43° (NE) 14:24:41 435.910
Cosmos 2504 18 Apr 14:18:54 14:26:25 34° 83° (E) 14:34:05 435.465 / 435.565
CUBEBUG 1 18 Apr 14:19:00 14:22:49 30° 295° (WNW) 14:26:36 437.445
Gurwin Techsat 1B 18 Apr 14:21:12 14:26:03 38° 64° (ENE) 14:30:58 435.225
Oscar 19 18 Apr 14:22:03 14:27:11 74° 256° (WSW) 14:32:25 437.125/150
SPROUT 18 Apr 14:35:00 14:39:16 61° 288° (WNW) 14:43:32 437.525
TISAT 1 18 Apr 14:35:31 14:39:45 73° 287° (WNW) 14:43:59 437.305
BEESAT 18 Apr 14:37:28 14:41:19 24° 92° (E) 14:45:12 436.000
SWISSCUBE 18 Apr 14:38:29 14:42:28 26° 93° (E) 14:46:30 437.505
ITAMSAT 1 18 Apr 14:38:40 14:43:45 59° 69° (ENE) 14:48:53 435.822/435.867
RS-15 18 Apr 14:38:55 14:42:09 12° 93° (E) 14:46:18 29.354- 29.394
AO-7 18 Apr 14:39:28 14:46:07 29° 46° (NE) 14:52:56 29.400- 29.500
PCSat 18 Apr 14:48:57 14:52:34 17° 345° (NNW) 14:56:06 145.827
HORYU 2 18 Apr 14:54:14 14:57:12 18° 58° (ENE) 15:00:18 437.375
BEESAT 2 18 Apr 15:26:48 15:29:52 20° 244° (WSW) 15:32:50 435.950
BEESAT 3 18 Apr 15:36:28 15:38:46 14° 247° (WSW) 15:40:54 437.485
AIST 2 18 Apr 15:36:58 15:40:59 40° 238° (WSW) 15:44:55 435.215
ITUPSAT 1 18 Apr 15:38:33 15:43:22 78° 103° (ESE) 15:48:08 437.325
SO-50 18 Apr 15:52:38 15:57:21 69° 315° (NW) 16:02:15 436.795
JAS-2 18 Apr 15:56:18 16:03:46 51° 64° (ENE) 16:11:09 435.910
Gurwin Techsat 1B 18 Apr 16:01:05 16:06:03 39° 264° (W) 16:11:02 435.225
ISS 18 Apr 16:02:34 16:04:51 18° 143° (SE) 16:07:12 145.825
Oscar 19 18 Apr 16:05:27 16:07:36 12° 278° (W) 16:09:28 437.125/150
Cosmos 2504 18 Apr 16:10:25 16:19:17 72° 284° (WNW) 16:28:08 435.465 / 435.565
TISAT 1 18 Apr 16:13:19 16:14:52 12° 305° (NW) 16:16:15 437.305
SPROUT 18 Apr 16:14:01 16:14:34 10° 307° (NW) 16:14:57 437.525
BEESAT 18 Apr 16:14:49 16:19:28 52° 291° (WNW) 16:24:05 436.000
SWISSCUBE 18 Apr 16:15:59 16:20:35 47° 292° (WNW) 16:25:08 437.505
YUBILEINY 18 Apr 16:18:35 16:23:00 14° 322° (NW) 16:27:03 435.215
ITAMSAT 1 18 Apr 16:19:27 16:23:41 24° 269° (W) 16:27:49 435.822/435.867
STARS 18 Apr 16:20:56 16:24:53 31° 95° (E) 16:28:52 437.465
HORYU 2 18 Apr 16:28:54 16:33:24 74° 258° (WSW) 16:37:55 437.375
AO-7 18 Apr 16:29:45 16:38:04 87° 68° (ENE) 16:46:25 29.400- 29.500
PCSat 18 Apr 16:34:48 16:38:06 16° 10° (N) 16:41:27 145.827
RS-15 18 Apr 16:41:36 16:51:53 53° 116° (ESE) 17:02:32 29.354- 29.394
GONETS M04 18 Apr 16:42:31 16:48:05 20° 74° (ENE) 16:54:03
KKS-1 18 Apr 16:42:58 16:47:28 73° 103° (ESE) 16:51:58 437.445
ITUPSAT 1 18 Apr 17:17:27 17:20:46 19° 303° (WNW) 17:23:58 437.325
SO-50 18 Apr 17:34:51 17:38:45 23° 338° (NNW) 17:42:42 436.795
ISS 18 Apr 17:37:35 17:40:49 64° 161° (SSE) 17:44:04 145.825
JAS-2 18 Apr 17:41:18 17:48:51 48° 264° (W) 17:56:19 435.910
MOZHAYETS 4 18 Apr 17:48:51 17:52:53 29° 93° (E) 17:56:57
BEESAT 18 Apr 17:55:51 17:56:22 10° 310° (NW) 17:56:40 436.000
STARS 18 Apr 17:57:19 18:01:24 36° 294° (WNW) 18:05:27 437.465
Cosmos 2504 18 Apr 18:07:55 18:14:35 22° 310° (NW) 18:20:57 435.465 / 435.565
CUTE-I 18 Apr 18:08:51 18:13:44 39° 64° (ENE) 18:18:40 437.470
HORYU 2 18 Apr 18:10:32 18:10:58 10° 277° (W) 18:11:08 437.375
Cubesat XI-IV 18 Apr 18:15:52 18:20:53 44° 66° (ENE) 18:25:57 437.490
PCSat 18 Apr 18:18:21 18:23:14 32° 35° (NE) 18:28:06 145.827
KKS-1 18 Apr 18:20:36 18:23:39 18° 302° (WNW) 18:26:36 437.445
AO-7 18 Apr 18:25:17 18:32:01 26° 271° (W) 18:38:32 29.400- 29.500
GONETS M04 18 Apr 18:34:52 18:43:35 77° 97° (E) 18:52:26
RS-15 18 Apr 18:53:17 19:04:10 65° 323° (NW) 19:15:26 29.354- 29.394
DANDE 18 Apr 18:58:10 19:00:33 21° 87° (E) 19:03:27 436.750
CUBESAT XI-V 18 Apr 19:03:45 19:06:34 16° 87° (E) 19:09:32 437.345
M-CUBED/EXP-1 PRIME 18 Apr 19:04:11 19:07:18 18° 93° (E) 19:10:21 437.505
Cosmos 2499 18 Apr 19:04:51 19:11:45 28° 80° (E) 19:18:49 435.465 / 435.565
HO-68 18 Apr 19:04:54 19:09:28 19° 44° (NE) 19:14:15 435.675
CUSAT 1 18 Apr 19:09:20 19:12:25 42° 94° (E) 19:16:25 437.405
ISS 18 Apr 19:13:55 19:17:12 80° 360° (N) 19:20:29 145.825
STRAND 1 18 Apr 19:15:37 19:17:08 11° 82° (E) 19:18:55 437.568
SO-50 18 Apr 19:17:41 19:20:54 17° 2° (N) 19:24:10 436.795
MOZHAYETS 4 18 Apr 19:25:54 19:30:15 40° 293° (WNW) 19:34:31
BRITE-PL 18 Apr 19:26:24 19:28:09 13° 56° (NE) 19:30:03 437.365/2234.400
JAS-2 18 Apr 19:33:58 19:36:01 11° 287° (WNW) 19:37:27 435.910
PRISM 18 Apr 19:46:25 19:49:44 23° 93° (E) 19:53:05 437.425
CUTE-I 18 Apr 19:48:52 19:53:52 39° 264° (W) 19:58:50 437.470
AUBIESAT-1 18 Apr 19:53:14 19:57:36 44° 103° (ESE) 20:01:39 437.475
GOMX 1 18 Apr 19:53:28 19:55:53 15° 57° (ENE) 19:58:28 467.674
Cubesat XI-IV 18 Apr 19:56:17 20:01:08 34° 265° (W) 20:05:58 437.490
CANX-2 18 Apr 19:56:24 19:58:44 15° 58° (ENE) 20:01:12 2200.000
PCSat 18 Apr 20:01:40 20:07:05 68° 238° (WSW) 20:12:28 145.827
SEEDS 18 Apr 20:01:49 20:03:44 13° 56° (ENE) 20:05:48 437.485
CUTE 1.7 + AOD 2 18 Apr 20:06:24 20:09:02 16° 59° (ENE) 20:11:48 437.475
YUBILEINY 18 Apr 20:26:58 20:28:23 10° 31° (NNE) 20:30:11 435.215
GONETS M04 18 Apr 20:33:46 20:41:29 32° 302° (WNW) 20:49:07
AAUSAT CUBESAT 2 18 Apr 20:36:44 20:39:42 19° 61° (ENE) 20:42:45 437.432
M-CUBED/EXP-1 PRIME 18 Apr 20:38:05 20:42:42 66° 295° (WNW) 20:46:56 437.505
CUBESAT XI-V 18 Apr 20:40:00 20:44:37 73° 287° (WNW) 20:49:12 437.345
DANDE 18 Apr 20:40:56 20:43:41 26° 297° (WNW) 20:47:02 436.750
Oscar 11 18 Apr 20:45:18 20:47:24 14° 56° (NE) 20:49:39 145.826/435.025
HO-68 18 Apr 20:48:57 20:56:00 63° 65° (ENE) 21:03:07 435.675
ISS 18 Apr 20:50:20 20:53:34 58° 201° (SSW) 20:56:46 145.825
STRAND 1 18 Apr 20:52:17 20:57:24 72° 103° (ESE) 21:02:30 437.568
CUSAT 1 18 Apr 20:53:09 20:55:42 18° 305° (NW) 20:58:38 437.405
Cosmos 2499 18 Apr 20:55:10 21:04:06 85° 280° (W) 21:12:53 435.465 / 435.565
SO-50 18 Apr 20:58:46 21:02:58 27° 26° (NNE) 21:07:13 436.795
BRITE-PL 18 Apr 21:01:56 21:06:05 88° 76° (ENE) 21:10:19 437.365/2234.400
DELFI C3 18 Apr 21:03:38 21:05:44 14° 58° (ENE) 21:07:58 145.870
DOVE 4 18 Apr 21:05:53 21:09:52 45° 69° (ENE) 21:14:04 437.250
RS-15 18 Apr 21:08:35 21:18:57 42° 355° (N) 21:29:41 29.354- 29.394
UWE-3 18 Apr 21:10:08 21:12:44 16° 57° (ENE) 21:15:31 435.000/436.395/437.385
CINEMA 3 18 Apr 21:10:55 21:14:38 30° 64° (ENE) 21:18:32 145.822/145.860
PRISM 18 Apr 21:21:30 21:25:24 41° 292° (WNW) 21:29:16 437.425
COMPASS 1 18 Apr 21:21:35 21:25:42 52° 71° (ENE) 21:29:53 437.405
HUMSAT D 18 Apr 21:27:31 21:28:03 10° 54° (NE) 21:28:46 437.325/437.525
AUBIESAT-1 18 Apr 21:28:16 21:32:13 28° 304° (NW) 21:35:52 437.475
GOMX 1 18 Apr 21:29:22 21:33:31 76° 258° (WSW) 21:37:50 467.674
CANX-2 18 Apr 21:29:47 21:34:06 86° 256° (WSW) 21:38:28 2200.000
SEEDS 18 Apr 21:34:38 21:38:54 83° 75° (ENE) 21:43:13 437.485
FUNcube-1 18 Apr 21:39:47 21:43:08 23° 62° (ENE) 21:46:38 145.935
CUTE 1.7 + AOD 2 18 Apr 21:40:10 21:44:29 75° 257° (WSW) 21:48:49 437.475
VELOX 1 18 Apr 21:43:09 21:43:56 11° 52° (NE) 21:44:54 145.980
PCSat 18 Apr 21:47:15 21:49:38 13° 256° (WSW) 21:51:45 145.827
AISAT 18 Apr 21:56:14 21:58:25 14° 56° (NE) 22:00:46 437.250
UKube-1 18 Apr 21:58:04 22:01:30 24° 62° (ENE) 22:05:01 .
ZACube-1 18 Apr 22:01:16 22:05:10 35° 66° (ENE) 22:09:12 437.345
CUBEBUG 2 18 Apr 22:01:55 22:06:04 49° 70° (ENE) 22:10:24 437.445
ESTCUBE 1 18 Apr 22:09:11 22:10:23 11° 53° (NE) 22:11:46 437.505/2401.250
AAUSAT CUBESAT 2 18 Apr 22:10:47 22:14:58 60° 259° (W) 22:19:11 437.432
M-CUBED/EXP-1 PRIME 18 Apr 22:14:25 22:16:43 13° 314° (NW) 22:18:49 437.505
Oscar 11 18 Apr 22:18:35 22:22:57 85° 77° (ENE) 22:27:22 145.826/435.025
CUBESAT XI-V 18 Apr 22:19:14 22:21:20 13° 306° (NW) 22:23:17 437.345
YUBILEINY 18 Apr 22:21:05 22:28:55 35° 61° (ENE) 22:36:49 435.215
Cosmos 2491 18 Apr 22:21:07 22:23:33 12° 67° (ENE) 22:26:35 435.465 / 435.565
50 SAT 18 Apr 22:21:52 22:24:44 20° 62° (ENE) 22:27:43 437.505
ISS 18 Apr 22:27:24 22:29:28 16° 219° (SW) 22:31:28 145.825
STRAND 1 18 Apr 22:32:18 22:36:10 22° 303° (WNW) 22:39:56 437.568
PHONESAT 2.4 18 Apr 22:34:18 22:34:45 10° 162° (SSE) 22:35:16 2401.200-2431.200
DELFI C3 18 Apr 22:36:15 22:40:21 83° 256° (WSW) 22:44:30 145.870
HO-68 18 Apr 22:37:46 22:44:13 34° 267° (W) 22:50:36 435.675
DX 1 18 Apr 22:39:00 22:43:14 57° 71° (ENE) 22:47:31 434.975-435.025
SO-50 18 Apr 22:39:10 22:44:10 88° 48° (NE) 22:49:07 436.795
BRITE-PL 18 Apr 22:44:14 22:45:27 11° 276° (W) 22:46:27 437.365/2234.400
UWE-3 18 Apr 22:44:25 22:48:43 80° 257° (WSW) 22:53:12 435.000/436.395/437.385
DOVE 4 18 Apr 22:44:38 22:47:58 22° 270° (W) 22:51:20 437.250
CINEMA 3 18 Apr 22:47:49 22:51:47 36° 264° (W) 22:55:54 145.822/145.860
Cosmos 2499 18 Apr 22:51:29 22:58:43 26° 305° (NW) 23:05:36 435.465 / 435.565
COMPASS 1 18 Apr 22:58:33 23:01:44 20° 270° (W) 23:04:51 437.405
HUMSAT D 18 Apr 22:58:52 23:03:01 64° 73° (ENE) 23:07:16 437.325/437.525
CANX-2 18 Apr 23:09:20 23:10:50 11° 276° (W) 23:12:06 2200.000
SEEDS 18 Apr 23:13:19 23:15:23 13° 275° (W) 23:17:16 437.485
FUNcube-1 18 Apr 23:15:01 23:19:12 50° 261° (W) 23:23:31 145.935
VELOX 1 18 Apr 23:15:21 23:19:42 61° 71° (ENE) 23:24:04 145.980
VERMONT LUNAR 18 Apr 23:19:45 23:21:35 14° 180° (S) 23:23:26 437.305
ANTELSAT 18 Apr 23:20:46 23:24:06 19° 88° (E) 23:27:33 437.575/2403.000
RS-15 18 Apr 23:23:14 23:34:12 53° 27° (NNE) 23:45:43 29.354- 29.394
QB50P1 18 Apr 23:28:25 23:28:47 10° 83° (E) 23:29:23 145.935-145.965
AISAT 18 Apr 23:30:00 23:34:24 85° 74° (ENE) 23:38:51 437.250
UKube-1 18 Apr 23:33:15 23:37:26 47° 260° (W) 23:41:39 .
ZACube-1 18 Apr 23:37:44 23:41:34 31° 266° (W) 23:45:30 437.345
CUBEBUG 2 18 Apr 23:39:43 23:43:06 22° 270° (W) 23:46:31 437.445
ESTCUBE 1 18 Apr 23:42:00 23:46:27 63° 71° (ENE) 23:50:57 437.505/2401.250
CUBEBUG 1 18 Apr 23:43:30 23:47:45 57° 71° (ENE) 23:52:01 437.445
BUGSAT 1 18 Apr 23:45:35 23:45:54 10° 85° (E) 23:46:26 437.445
QB50P2 18 Apr 23:49:37 23:52:26 17° 89° (E) 23:55:22 145.880/145.840
50 SAT 18 Apr 23:55:22 23:59:16 52° 260° (W) 00:03:14 437.505
Oscar 11 18 Apr 23:57:43 23:59:50 13° 275° (W) 00:01:47 145.826/435.025
TISAT 1 18 Apr 23:58:08 00:01:20 22° 62° (ENE) 00:04:37 437.305
SPROUT 18 Apr 23:58:55 00:02:27 26° 64° (ENE) 00:06:05 437.525
Cosmos 2504 19 Apr 00:04:48 00:10:14 18° 46° (NE) 00:15:42 435.465 / 435.565
PHONESAT 2.4 19 Apr 00:10:01 00:12:09 15° 179° (S) 00:14:17 2401.200-2431.200
Cosmos 2491 19 Apr 00:10:08 00:18:25 52° 90° (E) 00:26:50 435.465 / 435.565
POPSAT HIP 1 19 Apr 00:12:19 00:15:58 27° 94° (E) 00:19:40 437.405
NANOSAT C BR1 19 Apr 00:12:41 00:16:20 27° 94° (E) 00:20:01 145.865
TIGRISAT 19 Apr 00:14:09 00:18:48 53° 100° (E) 00:23:26 435.000
UNISAT 6 19 Apr 00:14:52 00:19:32 56° 100° (E) 00:24:12 437.425
DX 1 19 Apr 00:16:44 00:19:53 19° 270° (W) 00:22:58 434.975-435.025
SWISSCUBE 19 Apr 00:16:51 00:17:35 10° 50° (NE) 00:18:31 437.505
YUBILEINY 19 Apr 00:17:49 00:26:34 69° 265° (W) 00:35:10 435.215
SO-50 19 Apr 00:20:45 00:24:10 18° 247° (WSW) 00:27:27 436.795
UWE-3 19 Apr 00:25:13 00:26:11 10° 278° (W) 00:26:53 435.000/436.395/437.385
HUMSAT D 19 Apr 00:36:31 00:39:16 16° 272° (W) 00:41:56 437.325/437.525
